When you browse on this site, cookies collect data to enhance your experience and personalize the content and advertising you see.
Visit our Privacy Policy to learn more. By continuing to use the site, you agree to this use of cookies and data.
  • In Hungary
  • List of Countries
  • For 7 days
  • Water Temperature
  • Weather Map
  • News
  • Weather Widgets
  • user-avatar
    Login

    Hourly Weather Balapur

    Today, 29 February, Saturday

    Time Temperature Precipitation Wind Pressure Humidity
    00:00 +25°C° 0 mm 3 mps 734 mmHg 28%
    01:00 +24°C° 0 mm 3 mps 734 mmHg 29%
    02:00 +24°C° 0 mm 2 mps 734 mmHg 29%
    03:00 +23°C° 0 mm 2 mps 733 mmHg 31%
    04:00 +23°C° 0 mm 2 mps 733 mmHg 32%
    05:00 +21°C° 0 mm 2 mps 734 mmHg 32%
    06:00 +24°C° 0 mm 2 mps 734 mmHg 30%
    07:00 +26°C° 0 mm 3 mps 735 mmHg 27%
    08:00 +27°C° 0 mm 3 mps 736 mmHg 25%
    09:00 +30°C° 0 mm 3 mps 736 mmHg 24%
    10:00 +33°C° 0 mm 3 mps 736 mmHg 22%
    11:00 +36°C° 0 mm 4 mps 736 mmHg 21%
    12:00 +36°C° 0 mm 3 mps 735 mmHg 20%
    13:00 +37°C° 0 mm 3 mps 734 mmHg 18%
    14:00 +38°C° 0 mm 2 mps 733 mmHg 17%
    15:00 +37°C° 0 mm 2 mps 733 mmHg 17%
    16:00 +36°C° 0 mm 1 mps 733 mmHg 17%
    17:00 +36°C° 0 mm 1 mps 732 mmHg 18%
    18:00 +34°C° 0.1 mm 1 mps 733 mmHg 20%
    19:00 +32°C° 0.1 mm 1 mps 733 mmHg 23%
    20:00 +30°C° 0.1 mm 2 mps 733 mmHg 26%
    21:00 +29°C° 0 mm 2 mps 734 mmHg 27%
    22:00 +29°C° 0 mm 1 mps 734 mmHg 27%
    23:00 +29°C° 0 mm 1 mps 735 mmHg 27%

    Tomorrow, 1 March, Sunday

    Time Temperature Precipitation Wind Pressure Humidity
    00:00 +28°C° 0 mm 1 mps 734 mmHg 29%
    01:00 +27°C° 0 mm 1 mps 734 mmHg 31%
    02:00 +26°C° 0 mm 1 mps 733 mmHg 33%
    03:00 +25°C° 0 mm 1 mps 733 mmHg 33%
    04:00 +25°C° 0 mm 1 mps 733 mmHg 32%
    05:00 +24°C° 0 mm 2 mps 734 mmHg 32%
    06:00 +25°C° 0 mm 2 mps 734 mmHg 29%
    07:00 +27°C° 0 mm 2 mps 735 mmHg 26%
    08:00 +28°C° 0 mm 2 mps 736 mmHg 23%
    09:00 +30°C° 0 mm 2 mps 736 mmHg 21%
    10:00 +32°C° 0 mm 2 mps 736 mmHg 19%
    11:00 +35°C° 0 mm 1 mps 736 mmHg 17%
    12:00 +37°C° 0 mm 2 mps 735 mmHg 16%
    13:00 +38°C° 0 mm 2 mps 734 mmHg 15%
    14:00 +39°C° 0 mm 2 mps 733 mmHg 14%
    15:00 +38°C° 0 mm 2 mps 733 mmHg 14%
    16:00 +38°C° 0 mm 3 mps 733 mmHg 14%
    17:00 +38°C° 0 mm 3 mps 732 mmHg 14%
    18:00 +36°C° 0 mm 3 mps 733 mmHg 17%
    19:00 +35°C° 0 mm 2 mps 734 mmHg 20%
    20:00 +32°C° 0 mm 2 mps 734 mmHg 22%
    21:00 +31°C° 0 mm 2 mps 734 mmHg 28%
    22:00 +29°C° 0 mm 2 mps 734 mmHg 33%
    23:00 +28°C° 0 mm 2 mps 734 mmHg 38%

    Day after tomorrow, 2 March, Monday

    Time Temperature Precipitation Wind Pressure Humidity
    00:00 +27°C° 0 mm 2 mps 734 mmHg 40%
    01:00 +26°C° 0 mm 2 mps 734 mmHg 41%
    02:00 +26°C° 0 mm 2 mps 734 mmHg 43%
    03:00 +25°C° 0 mm 1 mps 734 mmHg 43%
    04:00 +24°C° 0 mm 1 mps 733 mmHg 43%
    05:00 +24°C° 0 mm 1 mps 733 mmHg 44%
    06:00 +25°C° 0 mm 1 mps 734 mmHg 39%
    07:00 +26°C° 0 mm 2 mps 735 mmHg 34%
    08:00 +27°C° 0 mm 2 mps 736 mmHg 29%
    09:00 +30°C° 0 mm 2 mps 736 mmHg 24%
    10:00 +32°C° 0 mm 2 mps 736 mmHg 20%
    11:00 +36°C° 0 mm 2 mps 736 mmHg 15%
    12:00 +37°C° 0 mm 3 mps 735 mmHg 14%
    13:00 +38°C° 0 mm 3 mps 734 mmHg 13%
    14:00 +40°C° 0 mm 4 mps 733 mmHg 12%
    15:00 +40°C° 0 mm 4 mps 733 mmHg 11%
    16:00 +40°C° 0 mm 4 mps 732 mmHg 11%
    17:00 +39°C° 0 mm 5 mps 732 mmHg 10%
    18:00 +36°C° 0 mm 4 mps 733 mmHg 12%
    19:00 +33°C° 0 mm 4 mps 733 mmHg 14%
    20:00 +30°C° 0 mm 4 mps 734 mmHg 15%
    21:00 +29°C° 0 mm 3 mps 734 mmHg 16%
    22:00 +28°C° 0 mm 2 mps 734 mmHg 17%
    23:00 +27°C° 0 mm 2 mps 734 mmHg 18%

    3 March, Tuesday

    Time Temperature Precipitation Wind Pressure Humidity
    00:00 +27°C° 0 mm 2 mps 734 mmHg 20%
    01:00 +26°C° 0 mm 3 mps 733 mmHg 22%
    02:00 +26°C° 0 mm 3 mps 733 mmHg 23%
    03:00 +25°C° 0 mm 3 mps 733 mmHg 25%
    04:00 +24°C° 0 mm 3 mps 733 mmHg 27%
    05:00 +22°C° 0 mm 3 mps 733 mmHg 29%
    06:00 +23°C° 0 mm 4 mps 734 mmHg 27%
    07:00 +26°C° 0 mm 4 mps 735 mmHg 25%
    08:00 +27°C° 0 mm 4 mps 735 mmHg 24%
    09:00 +30°C° 0 mm 4 mps 735 mmHg 20%
    10:00 +33°C° 0 mm 4 mps 735 mmHg 17%
    11:00 +36°C° 0 mm 3 mps 735 mmHg 13%
    12:00 +37°C° 0 mm 4 mps 734 mmHg 13%
    13:00 +38°C° 0 mm 4 mps 733 mmHg 13%
    14:00 +40°C° 0 mm 4 mps 732 mmHg 13%
    15:00 +39°C° 0 mm 5 mps 732 mmHg 13%
    16:00 +39°C° 0 mm 5 mps 732 mmHg 13%
    17:00 +39°C° 0 mm 6 mps 731 mmHg 14%
    18:00 +35°C° 0 mm 5 mps 732 mmHg 16%
    19:00 +33°C° 0 mm 4 mps 732 mmHg 18%
    20:00 +30°C° 0 mm 3 mps 733 mmHg 20%
    21:00 +29°C° 0 mm 3 mps 733 mmHg 21%
    22:00 +28°C° 0 mm 4 mps 733 mmHg 22%
    23:00 +27°C° 0 mm 4 mps 733 mmHg 22%

    4 March, Wednesday

    Time Temperature Precipitation Wind Pressure Humidity
    00:00 +27°C° 0 mm 4 mps 733 mmHg 25%
    01:00 +26°C° 0 mm 4 mps 732 mmHg 27%
    02:00 +25°C° 0 mm 4 mps 732 mmHg 29%
    03:00 +23°C° 0 mm 5 mps 732 mmHg 31%
    04:00 +22°C° 0 mm 5 mps 733 mmHg 33%
    05:00 +22°C° 0 mm 6 mps 733 mmHg 34%
    06:00 +22°C° 0 mm 6 mps 733 mmHg 38%
    07:00 +23°C° 0 mm 6 mps 734 mmHg 41%
    08:00 +24°C° 0 mm 6 mps 735 mmHg 44%
    09:00 +27°C° 0 mm 5 mps 735 mmHg 37%
    10:00 +30°C° 0 mm 5 mps 735 mmHg 29%
    11:00 +34°C° 0 mm 4 mps 735 mmHg 21%
    12:00 +35°C° 0 mm 4 mps 734 mmHg 19%
    13:00 +36°C° 0 mm 4 mps 733 mmHg 16%
    14:00 +37°C° 0 mm 4 mps 732 mmHg 13%
    15:00 +37°C° 0 mm 5 mps 731 mmHg 13%
    16:00 +37°C° 0 mm 5 mps 731 mmHg 13%
    17:00 +36°C° 0 mm 5 mps 731 mmHg 13%
    18:00 +34°C° 0 mm 4 mps 731 mmHg 15%
    19:00 +30°C° 0 mm 4 mps 732 mmHg 18%
    20:00 +28°C° 0 mm 3 mps 732 mmHg 20%
    21:00 +27°C° 0 mm 3 mps 732 mmHg 21%
    22:00 +26°C° 0 mm 3 mps 733 mmHg 21%
    23:00 +25°C° 0 mm 4 mps 733 mmHg 21%

    5 March, Thursday

    Time Temperature Precipitation Wind Pressure Humidity
    00:00 +23°C° 0 mm 4 mps 732 mmHg 24%
    01:00 +22°C° 0 mm 4 mps 732 mmHg 27%
    02:00 +22°C° 0 mm 4 mps 732 mmHg 30%
    03:00 +21°C° 0 mm 4 mps 732 mmHg 38%
    04:00 +20°C° 0 mm 4 mps 732 mmHg 45%
    05:00 +19°C° 0 mm 4 mps 732 mmHg 52%
    06:00 +20°C° 0 mm 5 mps 733 mmHg 52%
    07:00 +22°C° 0 mm 5 mps 734 mmHg 52%
    08:00 +23°C° 0 mm 5 mps 734 mmHg 52%
    09:00 +27°C° 0 mm 4 mps 734 mmHg 41%
    10:00 +29°C° 0 mm 4 mps 734 mmHg 31%
    11:00 +33°C° 0 mm 4 mps 735 mmHg 21%
    12:00 +34°C° 0 mm 4 mps 733 mmHg 19%
    13:00 +35°C° 0 mm 3 mps 732 mmHg 17%
    14:00 +36°C° 0 mm 3 mps 731 mmHg 15%
    15:00 +36°C° 0 mm 3 mps 731 mmHg 14%
    16:00 +37°C° 0 mm 3 mps 731 mmHg 13%
    17:00 +37°C° 0 mm 4 mps 730 mmHg 12%
    18:00 +34°C° 0 mm 3 mps 731 mmHg 15%
    19:00 +30°C° 0 mm 3 mps 731 mmHg 18%
    20:00 +27°C° 0 mm 3 mps 731 mmHg 21%
    21:00 +26°C° 0 mm 3 mps 731 mmHg 22%
    22:00 +26°C° 0 mm 3 mps 732 mmHg 24%
    23:00 +25°C° 0 mm 3 mps 732 mmHg 25%
    Show more